Location: LDNL
(36.4545°S, 141.6685°E)
Time: 16:17:23
(UTC+10:00)

Courier 1B Rocket - Pass Details

Date: 18 August 2022
Orbit: 920 x 1202 km, 28.2° (Epoch: 25 September)

Event Time Altitude Azimuth Distance (km) Brightness Sun altitude
Exits shadow 06:27:16 - 281° (W) 3,213 7.1 -9.8°
Reaches altitude 10° 06:27:31 10° 282° (WNW) 3,141 7.1 -9.8°
Maximum altitude 06:34:22 34° 343° (NNW) 1,856 6.4 -8.4°
Drops below altitude 10° 06:41:02 10° 44° (NE) 3,041 8.5 -7.1°
Sets 06:44:03 0° 53° (NE) 3,960 9.5 -6.5°
